1998-067IA

Last updated on May 18, 2016, 5:36 p.m. UTC

1 41480U 98067IA  16139.46459569  .00088076  00000-0  12670-2 0  9992
2 41480  51.6417 206.3048 0001733 205.6815 280.0574 15.55311610   179

Satellite is not in orbit.